Weather History for Dinard, France

Change the Weather History Date:

Thursday, July 5, 2012

  Actual Average Record
Temperature  
Mean Temperature 60 °F -  
Max Temperature 66 °F 69 °F 75 °F (2011)
Min Temperature 53 °F 54 °F 50 °F (2005)
Degree Days  
Heating Degree Days 6    
Growing Degree Days 10 (Base 50)    
Moisture  
Dew Point 55 °F    
Average Humidity 85    
Maximum Humidity 94    
Minimum Humidity 68    
Precipitation  
Precipitation 0.00 in - - ()
Sea Level Pressure  
Sea Level Pressure 29.79 in    
Wind  
Wind Speed 6 mph ()    
Max Wind Speed 15 mph    
Max Gust Speed 38 mph    
Visibility 6.0 miles    
Events Fog , Rain , Thunderstorm    
Averages and records for this station are not official NWS values.
T = Trace of Precipitation, MM = Missing Value Source: Averaged Metar Reports

Daily Weather History Graph

Daily Weather History Graph

Search for Another Location

Airport:

Trip Planner

Search our weather history database for the weather conditions in past years. The results will help you decide how hot, cold, wet, or windy it might be!

Date:

Astronomy

Jul. 05, 2012 Rise Set
Actual Time 6:13 AM CEST 10:12 PM CEST
Civil Twilight 5:31 AM CEST 10:53 PM CEST
Nautical Twilight 4:34 AM CEST 11:51 PM CEST
Astronomical Twilight 2:56 AM CEST 1:26 AM CEST
Moon 11:04 PM CEST (7/5) 8:20 AM CEST (7/5)
Length of Visible Light 17h 22m
Length of Day
15h 59m
Waning Gibbous, 96% of the Moon is Illuminated
Jul 5
Waning Gibbous
Jul 11
Last Quarter
Jul 19
New
Jul 26
First Quarter
Aug 2
Full

Hourly Weather History & Observations

Time (CEST) Temp. Dew Point Humidity Pressure Visibility Wind Dir Wind Speed Gust Speed Precip Events Conditions
12:00 AM 53.6 °F 50.0 °F 88% 29.83 in 6.2 mi SE 2.3 mph - N/A   Mostly Cloudy
12:30 AM 53.6 °F 51.8 °F 94% 29.83 in 6.2 mi SE 5.8 mph - N/A   Mostly Cloudy
1:00 AM 55.4 °F 53.6 °F 94% 29.83 in 6.2 mi SE 3.5 mph - N/A   Overcast
1:30 AM 55.4 °F 53.6 °F 94% 29.83 in 6.2 mi South 4.6 mph - N/A   Overcast
2:00 AM 57.2 °F 53.6 °F 88% 29.83 in 6.2 mi South 4.6 mph - N/A   Unknown
2:30 AM 57.2 °F 53.6 °F 88% 29.83 in 6.2 mi SSE 3.5 mph - N/A   Unknown
3:00 AM 57.2 °F 53.6 °F 88% 29.83 in 6.2 mi South 4.6 mph - N/A   Unknown
3:30 AM 57.2 °F 53.6 °F 88% 29.83 in 6.2 mi South 6.9 mph - N/A   Unknown
4:00 AM 55.4 °F 53.6 °F 94% 29.83 in 6.2 mi South 6.9 mph - N/A   Unknown
4:30 AM 55.4 °F 53.6 °F 94% 29.80 in 6.2 mi South 5.8 mph - N/A   Unknown
5:00 AM 57.2 °F 53.6 °F 88% 29.80 in 6.2 mi South 6.9 mph - N/A   Unknown
5:30 AM 55.4 °F 53.6 °F 94% 29.80 in 6.2 mi South 8.1 mph - N/A   Unknown
6:00 AM 55.4 °F 53.6 °F 94% 29.80 in 6.2 mi South 6.9 mph - N/A   Unknown
6:30 AM 55.4 °F 53.6 °F 94% 29.80 in 6.2 mi South 6.9 mph - N/A   Unknown
7:00 AM 55.4 °F 53.6 °F 94% 29.80 in 6.2 mi South 5.8 mph - N/A   Unknown
7:30 AM 57.2 °F 53.6 °F 88% 29.80 in 6.2 mi South 6.9 mph - N/A   Unknown
8:00 AM 57.2 °F 53.6 °F 88% 29.80 in 6.2 mi South 8.1 mph - N/A   Unknown
8:30 AM 59.0 °F 55.4 °F 88% 29.80 in 6.2 mi South 8.1 mph - N/A   Unknown
9:00 AM 60.8 °F 55.4 °F 82% 29.80 in 6.2 mi SSE 8.1 mph - N/A   Unknown
9:30 AM 60.8 °F 55.4 °F 82% 29.80 in 6.2 mi SSE 8.1 mph - N/A   Unknown
10:00 AM 62.6 °F 55.4 °F 77% 29.80 in 6.2 mi South 11.5 mph - N/A   Overcast
10:30 AM 66.2 °F 55.4 °F 68% 29.80 in 6.2 mi SSE 11.5 mph - N/A   Mostly Cloudy
11:00 AM 64.4 °F 53.6 °F 68% 29.80 in 6.2 mi South 9.2 mph - N/A   Mostly Cloudy
11:30 AM 64.4 °F 53.6 °F 68% 29.80 in 6.2 mi South 8.1 mph - N/A   Overcast
12:00 PM 60.8 °F 55.4 °F 82% 29.80 in 5.0 mi South 15.0 mph - N/A Rain Rain
12:30 PM 60.8 °F 57.2 °F 88% 29.80 in 6.2 mi SSE 6.9 mph - N/A   Mostly Cloudy
1:00 PM 64.4 °F 59.0 °F 83% 29.80 in 6.2 mi SE 9.2 mph - N/A   Unknown
1:30 PM 64.4 °F 57.2 °F 77% 29.80 in 6.2 mi SE 10.4 mph - N/A   Mostly Cloudy
2:00 PM 64.4 °F 59.0 °F 83% 29.77 in 6.2 mi SSE 8.1 mph - N/A   Mostly Cloudy
2:30 PM 64.4 °F 57.2 °F 77% 29.77 in 6.2 mi SE 10.4 mph - N/A   Mostly Cloudy
3:00 PM 66.2 °F 57.2 °F 73% 29.77 in 6.2 mi SE 11.5 mph - N/A   Mostly Cloudy
3:30 PM 59.0 °F 53.6 °F 82% 29.77 in 0.5 mi SSW 11.5 mph 38.0 mph N/A Fog , Rain , Thunderstorm Heavy Thunderstorms and Rain
4:00 PM 62.6 °F 59.0 °F 88% 29.77 in 6.2 mi SSE 12.7 mph - N/A Rain , Thunderstorm Light Thunderstorms and Rain
4:30 PM 66.2 °F 59.0 °F 78% 29.77 in 6.2 mi South 12.7 mph - N/A   Partly Cloudy
5:00 PM 64.4 °F 57.2 °F 77% 29.77 in 6.2 mi South 11.5 mph - N/A   Mostly Cloudy
5:30 PM 62.6 °F 57.2 °F 82% 29.77 in 6.2 mi South 6.9 mph - N/A Rain Light Rain
6:00 PM 64.4 °F 57.2 °F 77% 29.77 in 6.2 mi SSW 6.9 mph - N/A   Mostly Cloudy
6:30 PM 66.2 °F 59.0 °F 78% 29.77 in 6.2 mi South 6.9 mph - N/A   Mostly Cloudy
7:00 PM 66.2 °F 57.2 °F 73% 29.77 in 6.2 mi South 9.2 mph - N/A   Scattered Clouds
7:30 PM 62.6 °F 55.4 °F 77% 29.77 in 6.2 mi SSW 8.1 mph - N/A Thunderstorm Mostly Cloudy
8:00 PM 60.8 °F 55.4 °F 82% 29.77 in 6.2 mi WNW 3.5 mph - N/A Rain Rain
8:30 PM 59.0 °F 57.2 °F 94% 29.77 in 5.0 mi SSE 4.6 mph - N/A Rain Rain
9:00 PM 59.0 °F 57.2 °F 94% 29.77 in 6.2 mi South 2.3 mph - N/A   Overcast
9:30 PM 59.0 °F 57.2 °F 94% 29.77 in 6.2 mi SE 5.8 mph - N/A   Unknown
10:00 PM 59.0 °F 57.2 °F 94% 29.77 in 6.2 mi SSE 4.6 mph - N/A   Unknown
10:30 PM 59.0 °F 57.2 °F 94% 29.77 in - South 4.6 mph - N/A   Mist
11:00 PM 59.0 °F 57.2 °F 94% 29.77 in 6.2 mi South 4.6 mph - N/A   Unknown
11:30 PM 59.0 °F 57.2 °F 94% 29.80 in 6.2 mi SSE 4.6 mph - N/A   Unknown